[[{"header":{"parameterUnit":"m.s-1","parameterCategory":2,"la1":30.2991,"la2":30.254,"lo1":-89.0895,"lo2":-89.0444,"dy":0.0017,"dx":0.0017,"nx":28,"ny":28,"refTime":"2025-01-17T03:00:00:Z","depth":"0","parameterNumber":2,"parameterNumberName":"U-component_of_CURRENTS"},"data":[0,0,0,0,0,0,0,0,0,0,0,0,0,0,0,0,0,0,0,0,0,0,0,0,0,0,0,0,0,0,0,0,0,0,0,0,0,0,0,0,0,0,0,0,0,0,0,0,0,0,0,0,0,0,0,0,0,0,0.3604,0.3603,0,0.359,0.3591,0.3591,0.3616,0.3616,0.3616,0.3616,0.3543,0.3541,0.3539,0,0,0,0,0,0,0,0,0,0,0,0,0,0.3661,0.3661,0.3604,0.3603,0.3601,0.359,0.3591,0.3591,0.3616,0.3616,0.3616,0.3616,0.3544,0.3541,0.3539,0,0,0,0,0,0,0,0,0,0,0,0,0,0.3651,0.3661,0.3604,0.3605,0.3604,0.359,0.3591,0.3592,0.3616,0.3616,0.3616,0.3616,0.3544,0.3542,0.3539,0.3527,0,0,0.3531,0.353,0,0,0,0,0,0,0,0,0.3652,0.365,0.3606,0.3604,0.3603,0.3595,0.3584,0.3563,0.3616,0.3623,0.3616,0.3615,0.3548,0.3545,0.3559,0.3524,0.352,0.3531,0.3529,0.3528,0.3527,0,0,0,0,0,0,0,0.3652,0.3651,0.3609,0.3604,0.3603,0.3608,0.3607,0.3581,0.3594,0.3622,0.3621,0.3603,0.3548,0.3562,0.3557,0.3519,0.3531,0.3528,0.3527,0.3525,0.3542,0.3544,0,0,0,0,0,0,0.3632,0.3652,0.3609,0.3608,0.3615,0.3606,0.3606,0.3607,0.3596,0.3591,0.3603,0.3604,0.3567,0.356,0.3554,0.3597,0.3528,0.3525,0.3524,0.354,0.3542,0.3544,0,0,0,0,0,0,0.3634,0.3629,0.361,0.362,0.3616,0.3604,0.3606,0.3606,0.3616,0.358,0.3576,0.3609,0.3566,0.3558,0.3554,0.3592,0.3524,0.3522,0.3537,0.354,0.3543,0.3644,0,0,0,0,0,0,0.3636,0.3631,0.3637,0.3619,0.3614,0.3608,0.3604,0.3606,0.3599,0.3601,0.3583,0.3577,0.3565,0.3558,0.3551,0.3587,0.3519,0.3535,0.3539,0.3542,0.3638,0.365,0.3661,0,0,0,0,0,0.3639,0.3635,0.3638,0.3632,0.362,0.3607,0.3608,0.3605,0.3599,0.3613,0.3611,0.3578,0.3578,0.3557,0.3548,0.3584,0.3533,0.3538,0.3542,0.3633,0.3648,0.366,0,0,0,0,0,0,0.3631,0.3635,0.3638,0.3628,0.3622,0.3608,0.3609,0.3603,0.3614,0.3614,0.3591,0.3585,0.3601,0.3575,0.3553,0.3604,0.3554,0.3557,0.3627,0.364,0.3651,0.3683,0.3517,0,0,0,0,0,0.3638,0.3653,0.3642,0.3629,0.3633,0.3624,0.3619,0.3616,0.361,0.3616,0.3607,0.3605,0.3615,0.3611,0.3609,0.3621,0.3616,0.3643,0.3655,0.3664,0.3687,0.372,0.3736,0.356,0.3559,0.3559,0,0,0.3618,0.3625,0.3627,0.3632,0.3631,0.3656,0.3625,0.3616,0.3651,0.3602,0.3648,0.3633,0.3626,0.366,0.3664,0.364,0.3711,0.367,0.3678,0.3696,0.3727,0.3744,0.3759,0.3563,0.3562,0.3562,0,0,0.3613,0.361,0.3643,0.3653,0.3655,0.3659,0.3656,0.3656,0.3679,0.3703,0.3696,0.3711,0.3706,0.3733,0.3739,0.3805,0.3768,0.3795,0.3877,0.391,0.3924,0.3938,0.3949,0.3963,0.3803,0.3803,0.3804,0,0.3596,0.3644,0.3641,0.3681,0.3695,0.3666,0.3706,0.3725,0.3726,0.3761,0.3729,0.3774,0.3755,0.3823,0.3859,0.3832,0.3833,0.3825,0.3925,0.3938,0.3949,0.3958,0.3972,0.3809,0.3808,0.3808,0.3807,0,0.363,0.3677,0.3687,0.3752,0.3763,0.378,0.3801,0.3845,0.3853,0.3861,0.3917,0.3902,0.3931,0.3932,0.3916,0.3999,0.3966,0.3932,0.3891,0.3974,0.3977,0.3989,0.3817,0.3815,0.3813,0.3812,0,0,0.3565,0.37,0.3703,0.3757,0.381,0.3806,0.3907,0.3975,0.4019,0.4035,0.4101,0.4132,0.4099,0.4107,0.4082,0.4115,0.4192,0.4067,0.4066,0.408,0.4254,0.412,0.4119,0.4172,0.4175,0.4177,0.4221,0,0.3601,0.3716,0.3773,0.3849,0.3903,0.3953,0.4029,0.408,0.4114,0.4164,0.4182,0.4199,0.417,0.4166,0.4207,0.4185,0.423,0.4182,0.4171,0.4171,0.4043,0.4131,0.3909,0.3921,0.4233,0.4235,0.4236,0,0.3613,0.3701,0.3817,0.3932,0.3955,0.3991,0.4102,0.4161,0.425,0.4279,0.4328,0.4307,0.4369,0.4307,0.4363,0.4331,0.4319,0.4302,0.4302,0.4154,0.4061,0.389,0.393,0.3878,0.4254,0.4253,0.4251,0,0.3565,0.3708,0.3811,0.3846,0.3979,0.4044,0.4095,0.4189,0.4238,0.4331,0.4354,0.4416,0.4403,0.4447,0.4419,0.4399,0.4454,0.4412,0.4293,0.4282,0.408,0.4046,0.4068,0.4476,0.4476,0.4476,0.4476,0,0.3579,0.3646,0.379,0.3837,0.3921,0.3999,0.4071,0.4163,0.4247,0.4275,0.4367,0.4382,0.4433,0.4458,0.4465,0.441,0.4495,0.4333,0.4297,0.4106,0.4075,0.4006,0.3991,0.4478,0.4477,0.4477,0.4477,0,0.3527,0.3637,0.3733,0.3875,0.3907,0.3945,0.404,0.409,0.4182,0.4234,0.4263,0.4351,0.4373,0.4424,0.4454,0.4412,0.4286,0.4374,0.4136,0.4071,0.3874,0.3871,0.3708,0.3619,0.4251,0.4248,0.4245,0,0.354,0.3594,0.3719,0.3761,0.3828,0.3894,0.3948,0.4051,0.4096,0.419,0.4208,0.4253,0.4238,0.4252,0.4213,0.4213,0.416,0.4008,0.3933,0.3857,0.383,0.3714,0.3645,0.371,0.3703,0.3698,0.3694,0,0.3553,0.3582,0.3663,0.3733,0.3786,0.3823,0.3893,0.3907,0.4012,0.403,0.4032,0.4018,0.4024,0.3887,0.3891,0.3869,0.3811,0.3893,0.3883,0.3476,0.3282,0.3178,0.3692,0.3646,0.365,0.3654,0.3657,0.3658,0.3545,0.3575,0.3653,0.3694,0.3736,0.3711,0.3657,0.3717,0.3697,0.3639,0.3763,0.3635,0.3634,0.357,0.3543,0.3394,0.3446,0.3297,0.3323,0.3232,0.3069,0.347,0.3334,0.3337,0.3339,0.3342,0.3344,0,0.352,0.3554,0.3609,0.3616,0.3563,0.3606,0.3588,0.3477,0.3349,0.3349,0.3274,0.3166,0.3041,0.3062,0.2983,0.2874,0.2759,0.2823,0.2646,0.2628,0.3044,0.2945,0.2632,0.2632,0.2632,0.2632,0.2632,0.2632,0.3522,0.3535,0.3539,0.3426,0.3391,0.3211,0.3124,0.2994,0.293,0.2702,0.2578,0.259,0.2742,0.2749,0.2632,0.2558,0.2444,0.2262,0.2376,0.2719,0.2766,0.2812,0.2719,0.2363,0.2363,0.1806,0.1802,0.1799]},{"header":{"parameterUnit":"m.s-1","parameterCategory":2,"la1":30.2991,"la2":30.254,"lo1":-89.0895,"lo2":-89.0444,"dy":0.0017,"dx":0.0017,"nx":28,"ny":28,"refTime":"2025-01-17T03:00:00:Z","depth":"0","parameterNumber":3,"parameterNumberName":"V-component_of_CURRENTS"},"data":[0,0,0,0,0,0,0,0,0,0,0,0,0,0,0,0,0,0,0,0,0,0,0,0,0,0,0,0,0,0,0,0,0,0,0,0,0,0,0,0,0,0,0,0,0,0,0,0,0,0,0,0,0,0,0,0,0,0,0.0028,0.0028,0,0.006,0.0061,0.0061,0.009,0.009,0.009,0.009,0.0086,0.0086,0.0086,0,0,0,0,0,0,0,0,0,0,0,0,0,0.0034,0.0034,0.0028,0.0028,0.0028,0.006,0.0061,0.0061,0.009,0.009,0.009,0.009,0.0087,0.0086,0.0086,0,0,0,0,0,0,0,0,0,0,0,0,0,0.0046,0.0034,0.0028,0.0046,0.0047,0.006,0.0061,0.0062,0.009,0.009,0.009,0.0091,0.0087,0.0086,0.0086,0.0075,0,0,0.0084,0.0084,0,0,0,0,0,0,0,0,0.0045,0.0046,0.0043,0.0044,0.0046,0.0071,0.0062,0.0064,0.0089,0.0074,0.009,0.0091,0.0077,0.0077,0.0084,0.0075,0.0075,0.0084,0.0084,0.0084,0.0084,0,0,0,0,0,0,0,0.0045,0.0045,0.0041,0.0043,0.0045,0.0067,0.0069,0.0063,0.0073,0.0076,0.0078,0.008,0.0078,0.0085,0.0084,0.0075,0.0084,0.0084,0.0083,0.0083,0.0085,0.0085,0,0,0,0,0,0,0.0036,0.0044,0.004,0.0042,0.0046,0.0067,0.0069,0.0063,0.0074,0.0076,0.008,0.0081,0.0085,0.0085,0.0084,0.0095,0.0084,0.0083,0.0083,0.0085,0.0085,0.0086,0,0,0,0,0,0,0.0036,0.0035,0.0039,0.0044,0.0046,0.0066,0.006,0.0064,0.0073,0.0077,0.0079,0.0085,0.0086,0.0085,0.0089,0.0094,0.0083,0.0083,0.0084,0.0085,0.0085,0.0103,0,0,0,0,0,0,0.0036,0.0034,0.0032,0.0043,0.0045,0.0053,0.0059,0.0064,0.0074,0.0076,0.0082,0.0083,0.0086,0.009,0.0089,0.0094,0.0082,0.0084,0.0085,0.0085,0.0102,0.0104,0.0106,0,0,0,0,0,0.0036,0.0041,0.0031,0.0031,0.0039,0.0054,0.0057,0.0074,0.0073,0.0082,0.0088,0.0083,0.0093,0.009,0.0088,0.0093,0.0084,0.0084,0.0085,0.0101,0.0103,0.0105,0,0,0,0,0,0,0.0059,0.0044,0.0034,0.0038,0.0043,0.0058,0.007,0.0072,0.0083,0.0084,0.0085,0.0086,0.0092,0.0089,0.0085,0.0096,0.0088,0.0088,0.01,0.0102,0.0104,0.0127,0.0082,0,0,0,0,0,0.0055,0.005,0.0043,0.005,0.0046,0.0052,0.006,0.0067,0.0076,0.0082,0.0087,0.009,0.0093,0.0095,0.0097,0.01,0.0103,0.0102,0.0104,0.0106,0.0123,0.0137,0.0142,0.0088,0.0088,0.0088,0,0,0.0068,0.0061,0.0059,0.0053,0.0056,0.0068,0.0059,0.0071,0.0084,0.0077,0.0099,0.0094,0.0094,0.0104,0.0106,0.0103,0.0119,0.0107,0.0108,0.0125,0.0139,0.0144,0.0149,0.0089,0.0088,0.0088,0,0,0.01,0.0078,0.0083,0.0086,0.0085,0.0083,0.0084,0.009,0.0093,0.0102,0.0104,0.0111,0.0109,0.0123,0.0125,0.0137,0.0127,0.0127,0.0156,0.0169,0.0174,0.0178,0.017,0.0174,0.013,0.013,0.013,0,0.0116,0.0122,0.0092,0.0106,0.0116,0.009,0.011,0.0107,0.0119,0.0137,0.0111,0.0141,0.0124,0.016,0.0154,0.0143,0.014,0.0146,0.0172,0.0177,0.0181,0.0172,0.0176,0.0131,0.013,0.013,0.013,0,0.0157,0.0162,0.017,0.0168,0.0171,0.0187,0.0169,0.0173,0.016,0.0176,0.0199,0.018,0.0208,0.0189,0.0166,0.0194,0.0177,0.0171,0.0168,0.0188,0.0176,0.018,0.0132,0.0132,0.0131,0.0131,0,0,0.02,0.0196,0.0202,0.0214,0.0206,0.0218,0.0223,0.0241,0.0282,0.026,0.0321,0.0285,0.0285,0.0286,0.0262,0.0256,0.0252,0.0218,0.0218,0.0213,0.0264,0.0244,0.0246,0.0247,0.0248,0.0249,0.0237,0,0.0245,0.0282,0.0264,0.0306,0.0323,0.0299,0.032,0.0332,0.034,0.0392,0.0365,0.0409,0.0318,0.0337,0.0311,0.0285,0.0266,0.0255,0.0245,0.0245,0.0227,0.0252,0.0245,0.0235,0.0241,0.0242,0.0242,0,0.0297,0.0316,0.0357,0.0383,0.0388,0.0408,0.045,0.0468,0.0515,0.0524,0.0548,0.0545,0.0538,0.0458,0.0403,0.0398,0.0327,0.0287,0.0286,0.0271,0.0233,0.0219,0.0241,0.0138,0.0248,0.0247,0.0247,0,0.0356,0.0384,0.0419,0.043,0.045,0.0469,0.0483,0.0526,0.0578,0.0631,0.0696,0.0671,0.0687,0.0599,0.0482,0.0449,0.0425,0.0379,0.0293,0.029,0.0287,0.0283,0.0216,0.0341,0.0341,0.0341,0.0341,0,0.0418,0.0452,0.0453,0.0482,0.0541,0.0533,0.0614,0.0631,0.0711,0.0822,0.0778,0.0861,0.0721,0.0689,0.055,0.0439,0.0474,0.0312,0.0297,0.029,0.0285,0.0198,0.0122,0.034,0.034,0.034,0.0341,0,0.0483,0.048,0.0531,0.0558,0.0571,0.0618,0.0692,0.0775,0.0824,0.0971,0.1001,0.1016,0.0967,0.0823,0.0699,0.0549,0.0373,0.0384,0.0371,0.0355,0.0164,0.009,0.0021,-0.0022,0.0292,0.0292,0.0292,0,0.0517,0.0552,0.0593,0.0632,0.0646,0.0709,0.0774,0.0826,0.0934,0.108,0.1178,0.1179,0.1202,0.1,0.0743,0.0519,0.0389,0.0352,0.0284,0.0167,0.0073,0.0031,-0.0004,0.0275,0.0274,0.0274,0.0273,0,0.0601,0.0612,0.065,0.0721,0.0784,0.0868,0.0969,0.1069,0.1173,0.1302,0.1461,0.1495,0.1303,0.1081,0.0755,0.0584,0.0278,0.0337,0.0232,0.0072,0.0008,-0.0044,0.025,0.027,0.0271,0.0271,0.0271,0.0271,0.0666,0.0703,0.0747,0.0814,0.0897,0.1027,0.1118,0.1259,0.1434,0.1631,0.1651,0.1706,0.1373,0.0935,0.0695,0.026,0.0257,0.0116,0.004,0.0012,-0.004,0.0237,0.0231,0.0231,0.0231,0.0231,0.0231,0,0.0735,0.0771,0.0842,0.0927,0.1038,0.1066,0.1252,0.1371,0.1586,0.1733,0.1849,0.1713,0.1311,0.089,0.0311,0.0019,-0.0086,-0.0136,-0.0202,-0.022,0.0046,0.0034,-0.0034,-0.0034,-0.0033,-0.0033,-0.0033,-0.0033,0.0774,0.084,0.0861,0.1025,0.1107,0.1264,0.1376,0.1564,0.1695,0.1866,0.1887,0.1885,0.1591,0.0574,-0.0071,-0.0224,-0.0404,-0.0469,-0.0537,-0.0374,-0.0356,-0.0339,-0.0366,-0.0516,-0.0517,-0.0756,-0.0759,-0.0761]}],[{"header":{"parameterUnit":"m.s-1","parameterCategory":2,"la1":30.2991,"la2":30.254,"lo1":-89.0895,"lo2":-89.0444,"dy":0.0017,"dx":0.0017,"nx":28,"ny":28,"refTime":"2025-01-17T03:00:00:Z","depth":"2","parameterNumber":2,"parameterNumberName":"U-component_of_CURRENTS"},"data":[0,0,0,0,0,0,0,0,0,0,0,0,0,0,0,0,0,0,0,0,0,0,0,0,0,0,0,0,0,0,0,0,0,0,0,0,0,0,0,0,0,0,0,0,0,0,0,0,0,0,0,0,0,0,0,0,0,0,0.2686,0.2686,0,0.2621,0.2619,0.2617,0.2612,0.2614,0.2616,0.2618,0.2699,0.2699,0.2699,0,0,0,0,0,0,0,0,0,0,0,0,0,0.273,0.2729,0.2686,0.2686,0.2687,0.2621,0.2619,0.2617,0.2612,0.2614,0.2617,0.2619,0.2699,0.2699,0.2699,0,0,0,0,0,0,0,0,0,0,0,0,0,0.2681,0.2728,0.2686,0.2686,0.2686,0.2621,0.2619,0.2616,0.2612,0.2614,0.2617,0.262,0.2698,0.2699,0.27,0.2647,0,0,0.2701,0.2702,0,0,0,0,0,0,0,0,0.2684,0.2678,0.2685,0.2686,0.2686,0.2638,0.2665,0.2638,0.2611,0.2627,0.2618,0.2621,0.2698,0.2699,0.2661,0.2651,0.2655,0.2702,0.2702,0.2702,0.2702,0,0,0,0,0,0,0,0.2687,0.268,0.2648,0.2686,0.2686,0.2663,0.2659,0.2657,0.2641,0.2625,0.2628,0.264,0.2698,0.266,0.2663,0.2656,0.2702,0.2702,0.2702,0.2703,0.2788,0.279,0,0,0,0,0,0,0.2721,0.2683,0.265,0.2647,0.2706,0.2662,0.2656,0.2641,0.2638,0.2642,0.2637,0.264,0.2657,0.2662,0.2666,0.2754,0.2702,0.2703,0.2703,0.2786,0.2789,0.2791,0,0,0,0,0,0,0.2721,0.2717,0.2653,0.2676,0.2668,0.266,0.2642,0.2638,0.2644,0.2647,0.2653,0.2655,0.266,0.2666,0.2709,0.2753,0.2703,0.2704,0.2784,0.2787,0.279,0.2836,0,0,0,0,0,0,0.2722,0.2717,0.2723,0.2677,0.2668,0.2664,0.264,0.2635,0.2651,0.2654,0.2663,0.267,0.2662,0.2709,0.271,0.2753,0.2704,0.2782,0.2785,0.2789,0.2832,0.284,0.2847,0,0,0,0,0,0.2723,0.2724,0.2722,0.272,0.2673,0.2667,0.266,0.2655,0.265,0.2665,0.2669,0.2672,0.2734,0.271,0.2711,0.2755,0.278,0.2784,0.2789,0.2829,0.2838,0.2847,0,0,0,0,0,0,0.2721,0.2723,0.2721,0.2714,0.2719,0.2673,0.268,0.2673,0.2675,0.2686,0.268,0.2688,0.2745,0.2743,0.2717,0.2794,0.2764,0.2768,0.2794,0.2803,0.281,0.2869,0.2705,0,0,0,0,0,0.273,0.2739,0.2735,0.2728,0.2737,0.2711,0.2709,0.271,0.2706,0.2708,0.2724,0.2739,0.275,0.2774,0.2786,0.2817,0.2839,0.2854,0.2861,0.2867,0.2919,0.2967,0.2983,0.2805,0.2805,0.2805,0,0,0.2726,0.2726,0.2731,0.2732,0.2721,0.2733,0.2714,0.2727,0.2759,0.2719,0.2774,0.2767,0.2765,0.2803,0.2831,0.2816,0.2925,0.2873,0.2878,0.2927,0.2973,0.2991,0.3006,0.2808,0.2807,0.2807,0,0,0.2728,0.2724,0.2747,0.2754,0.2775,0.2764,0.2785,0.2782,0.2816,0.2856,0.2834,0.2868,0.2889,0.2896,0.2897,0.2958,0.296,0.2959,0.3047,0.3091,0.3106,0.312,0.3147,0.3164,0.2965,0.2965,0.2965,0,0.274,0.2728,0.2752,0.2771,0.2787,0.2789,0.2815,0.2835,0.2857,0.2897,0.2906,0.2937,0.2942,0.2971,0.3003,0.2979,0.2997,0.3003,0.3101,0.3116,0.3129,0.3154,0.3171,0.2968,0.2968,0.2967,0.2967,0,0.2716,0.2748,0.2755,0.2785,0.2825,0.2827,0.2886,0.2942,0.2982,0.2996,0.3075,0.3069,0.3094,0.3094,0.3074,0.3158,0.3135,0.3098,0.3076,0.315,0.3171,0.3188,0.2972,0.2971,0.297,0.2969,0,0,0.2671,0.2729,0.2746,0.278,0.2825,0.2854,0.295,0.3019,0.308,0.3133,0.3209,0.3238,0.3236,0.3242,0.321,0.3266,0.3363,0.3241,0.3242,0.3266,0.346,0.3278,0.3278,0.3336,0.334,0.3343,0.3426,0,0.265,0.2697,0.2739,0.2806,0.284,0.2908,0.2988,0.3075,0.3154,0.3234,0.327,0.3319,0.3286,0.3304,0.3351,0.3357,0.3416,0.3345,0.339,0.3393,0.3219,0.3295,0.3046,0.3086,0.3443,0.3446,0.3448,0,0.2619,0.2664,0.2728,0.2842,0.2865,0.2912,0.306,0.3126,0.325,0.3338,0.3404,0.341,0.3487,0.3458,0.354,0.3492,0.3512,0.3522,0.3523,0.3363,0.3243,0.3077,0.3104,0.3476,0.3474,0.3472,0.347,0,0.2586,0.2671,0.2724,0.2745,0.2862,0.2943,0.3006,0.3153,0.3242,0.3402,0.3463,0.354,0.3572,0.3632,0.3629,0.3611,0.3712,0.3669,0.3527,0.3513,0.332,0.3281,0.3774,0.3774,0.3774,0.3773,0.3773,0,0.2536,0.2596,0.2712,0.2737,0.2831,0.293,0.3061,0.3164,0.3305,0.3379,0.3481,0.3526,0.3627,0.3654,0.3678,0.3633,0.3742,0.3581,0.3537,0.3322,0.3285,0.364,0.3623,0.3776,0.3776,0.3775,0.3775,0,0.2512,0.2564,0.2639,0.2766,0.2824,0.2896,0.3085,0.3174,0.3302,0.341,0.346,0.3552,0.3588,0.3634,0.3721,0.3652,0.3665,0.3625,0.3354,0.3275,0.3436,0.3421,0.3509,0.3504,0.3499,0.3495,0.3492,0,0.2473,0.2518,0.2666,0.2719,0.2782,0.2919,0.3027,0.3193,0.3303,0.3383,0.3423,0.3465,0.345,0.3472,0.3451,0.3459,0.3558,0.3198,0.3123,0.3469,0.3417,0.3409,0.3401,0.2891,0.2884,0.2877,0.2872,0,0.2421,0.2496,0.2567,0.2708,0.2818,0.2922,0.3077,0.3114,0.3264,0.3301,0.3267,0.3219,0.3245,0.3096,0.31,0.307,0.3177,0.3061,0.3525,0.2966,0.2884,0.2833,0.2846,0.2815,0.282,0.2825,0.2828,0.283,0.239,0.2428,0.2555,0.2678,0.2803,0.2846,0.2835,0.2948,0.2964,0.29,0.2994,0.2845,0.2885,0.2724,0.2643,0.2606,0.2828,0.2713,0.2735,0.2764,0.2647,0.2557,0.2406,0.2409,0.2412,0.2414,0.2416,0,0.2319,0.2419,0.2518,0.2604,0.2654,0.2781,0.2832,0.2725,0.2604,0.264,0.2569,0.2295,0.218,0.2243,0.2101,0.2084,0.21,0.1993,0.2012,0.207,0.2122,0.1974,0.1554,0.1551,0.1548,0.1546,0,0,0.2328,0.2335,0.239,0.2428,0.2498,0.2463,0.241,0.2249,0.2229,0.2014,0.1964,0.2077,0.2165,0.1832,0.1792,0.1649,0.1847,0.1581,0.2278,0.2359,0.2407,0.2544,0.2381,0,0,0,0,0]},{"header":{"parameterUnit":"m.s-1","parameterCategory":2,"la1":30.2991,"la2":30.254,"lo1":-89.0895,"lo2":-89.0444,"dy":0.0017,"dx":0.0017,"nx":28,"ny":28,"refTime":"2025-01-17T03:00:00:Z","depth":"2","parameterNumber":3,"parameterNumberName":"V-component_of_CURRENTS"},"data":[0,0,0,0,0,0,0,0,0,0,0,0,0,0,0,0,0,0,0,0,0,0,0,0,0,0,0,0,0,0,0,0,0,0,0,0,0,0,0,0,0,0,0,0,0,0,0,0,0,0,0,0,0,0,0,0,0,0,0.0069,0.0069,0,0.0066,0.0066,0.0066,0.0065,0.0065,0.0065,0.0065,0.0013,0.0012,0.001,0,0,0,0,0,0,0,0,0,0,0,0,0,0.0082,0.0081,0.0069,0.0069,0.0069,0.0066,0.0066,0.0066,0.0065,0.0065,0.0065,0.0065,0.0014,0.0012,0.001,0,0,0,0,0,0,0,0,0,0,0,0,0,0.0077,0.0081,0.0069,0.0068,0.0068,0.0066,0.0066,0.0066,0.0065,0.0065,0.0065,0.0065,0.0014,0.0012,0.001,-0.0004,0,0,0.0004,0.0003,0,0,0,0,0,0,0,0,0.0077,0.0077,0.0068,0.0068,0.0068,0.0066,0.0052,0.004,0.0065,0.0066,0.0065,0.0065,0.0026,0.0023,0.0023,-0.0006,-0.0008,0.0003,0.0002,0.0001,0.0001,0,0,0,0,0,0,0,0.0078,0.0077,0.0067,0.0068,0.0068,0.0071,0.007,0.005,0.0045,0.0066,0.0066,0.0066,0.0026,0.0025,0.0022,-0.0009,0.0004,0.0002,0.0,-0.0,-0.0029,-0.0028,0,0,0,0,0,0,0.0078,0.0077,0.0068,0.0067,0.0073,0.0071,0.007,0.0067,0.0046,0.0044,0.0066,0.0066,0.0029,0.0024,0.002,0.0024,0.0001,-0.0001,-0.0002,-0.0029,-0.0029,-0.0028,0,0,0,0,0,0,0.0078,0.0077,0.0068,0.0073,0.0072,0.007,0.0067,0.0066,0.0068,0.0047,0.0043,0.0067,0.0029,0.0023,0.0011,0.0021,-0.0002,-0.0004,-0.003,-0.0029,-0.0028,0.0019,0,0,0,0,0,0,0.0078,0.0077,0.0074,0.0072,0.0071,0.0072,0.0067,0.0066,0.0068,0.0068,0.0047,0.0042,0.0028,0.0014,0.0008,0.0018,-0.0005,-0.003,-0.0029,-0.0028,0.0017,0.0021,0.0025,0,0,0,0,0,0.0079,0.0083,0.0074,0.0073,0.0068,0.0073,0.0073,0.0072,0.0068,0.0072,0.006,0.0043,0.0016,0.0012,0.0006,0.0015,-0.0031,-0.003,-0.0029,0.0015,0.002,0.0025,0,0,0,0,0,0,0.0098,0.0083,0.0074,0.0075,0.0074,0.0073,0.0077,0.0073,0.0067,0.0063,0.0045,0.004,0.0034,0.0017,0.0013,0.0011,-0.0009,-0.0009,0.0026,0.0031,0.0035,0.0052,-0.0007,0,0,0,0,0,0.0097,0.0094,0.0083,0.0087,0.0082,0.0077,0.0078,0.0075,0.007,0.0068,0.0057,0.0043,0.0034,0.0026,0.0013,0.0007,-0.0006,0.001,0.0014,0.0018,0.0027,0.0023,0.0028,-0.0024,-0.0024,-0.0024,0,0,0.0106,0.01,0.0097,0.0091,0.0086,0.0095,0.0078,0.008,0.0086,0.0061,0.0067,0.0053,0.0035,0.0034,0.003,0.0021,0.0024,0.0019,0.0023,0.003,0.0025,0.003,0.0034,-0.0023,-0.0024,-0.0024,0,0,0.0131,0.0115,0.0118,0.0122,0.0115,0.0107,0.0108,0.0102,0.0096,0.0092,0.0083,0.0083,0.0058,0.0062,0.0056,0.0074,0.0045,0.0064,0.0098,0.0094,0.0098,0.0102,0.0084,0.0086,0.0067,0.0067,0.0067,0,0.014,0.0154,0.0123,0.0138,0.015,0.0116,0.0136,0.0121,0.0116,0.0129,0.0097,0.0103,0.0076,0.0102,0.0101,0.0085,0.007,0.0081,0.01,0.0103,0.0106,0.0087,0.0089,0.007,0.0069,0.0069,0.0069,0,0.0182,0.019,0.0198,0.02,0.0199,0.0216,0.0189,0.0185,0.0165,0.0173,0.0183,0.0149,0.0162,0.0147,0.012,0.014,0.0118,0.0105,0.0089,0.0114,0.0093,0.0093,0.0073,0.0072,0.0071,0.0071,0,0,0.021,0.0223,0.0226,0.0243,0.024,0.0245,0.0243,0.0255,0.0288,0.0252,0.0298,0.0258,0.0253,0.0245,0.0217,0.0201,0.0191,0.0157,0.0156,0.0143,0.0169,0.0133,0.0129,0.0178,0.0179,0.0179,0.0143,0,0.0257,0.0299,0.029,0.0331,0.0351,0.0328,0.0342,0.0344,0.0343,0.0376,0.0336,0.0364,0.0285,0.0296,0.0263,0.0219,0.0196,0.0201,0.0144,0.0142,0.011,0.0131,0.0143,0.011,0.0143,0.0143,0.0143,0,0.0301,0.0329,0.0375,0.0408,0.0414,0.0427,0.046,0.0476,0.0501,0.0504,0.0515,0.0496,0.0472,0.0396,0.0317,0.0321,0.0245,0.0196,0.0193,0.0146,0.0108,0.0091,0.011,0.0144,0.0144,0.0144,0.0144,0,0.0342,0.0384,0.0424,0.0441,0.0469,0.048,0.0494,0.0525,0.0577,0.0601,0.0653,0.0608,0.0603,0.05,0.0367,0.0347,0.0275,0.0242,0.014,0.0136,0.013,0.0125,0.0189,0.0189,0.0189,0.019,0.019,0,0.0401,0.0435,0.0445,0.0476,0.0534,0.0529,0.0602,0.0618,0.0687,0.079,0.0729,0.0781,0.0627,0.0565,0.0419,0.0279,0.0312,0.0152,0.013,0.0144,0.0141,0.0158,0.0155,0.0188,0.0188,0.0189,0.0189,0,0.0437,0.0451,0.0505,0.054,0.0554,0.0593,0.0673,0.0751,0.0793,0.0921,0.0939,0.0922,0.0826,0.0666,0.0509,0.0367,0.0228,0.0169,0.0184,0.0164,0.0077,0.0076,0.0061,0.0059,0.0058,0.0057,0.0056,0,0.0461,0.0492,0.0547,0.0593,0.061,0.0669,0.0732,0.0791,0.0897,0.1013,0.1095,0.1045,0.101,0.075,0.0501,0.0256,0.0224,0.011,0.007,0.0086,0.0066,0.0068,0.0069,0.0077,0.0076,0.0075,0.0075,0,0.0521,0.0533,0.0578,0.0662,0.0726,0.0822,0.092,0.1023,0.1128,0.1215,0.1314,0.1288,0.1049,0.0793,0.0459,0.029,0.0144,0.009,0.0127,0.0103,0.0098,0.0079,0.0081,0.0071,0.0071,0.0071,0.0072,0.0072,0.0568,0.0604,0.066,0.0741,0.0832,0.098,0.1067,0.1192,0.1341,0.148,0.1446,0.1384,0.1113,0.0662,0.0389,0.0107,0.0119,0.0007,0.0011,0.0015,0.0019,0.0011,-0.0032,-0.0032,-0.0032,-0.0032,-0.0032,0,0.0637,0.0675,0.0747,0.0859,0.0978,0.1011,0.1202,0.1288,0.1448,0.153,0.155,0.1271,0.0988,0.0683,0.0266,0.0013,-0.0003,-0.0073,-0.0031,-0.0025,-0.002,-0.0017,-0.0078,-0.0078,-0.0079,-0.008,0,0,0.0677,0.0756,0.0779,0.0964,0.1052,0.1207,0.1316,0.1436,0.1512,0.1554,0.1508,0.1408,0.1054,0.0741,0.0403,0.0169,0.0128,0.0114,0.0176,0.0271,0.028,0.0049,0.0064,0,0,0,0,0]}],[{"header":{"parameterUnit":"m.s-1","parameterCategory":2,"la1":30.2991,"la2":30.254,"lo1":-89.0895,"lo2":-89.0444,"dy":0.0017,"dx":0.0017,"nx":28,"ny":28,"refTime":"2025-01-17T03:00:00:Z","depth":"4","parameterNumber":2,"parameterNumberName":"U-component_of_CURRENTS"},"data":[0,0,0,0,0,0,0,0,0,0,0,0,0,0,0,0,0,0,0,0,0,0,0,0,0,0,0,0,0,0,0,0,0,0,0,0,0,0,0,0,0,0,0,0,0,0,0,0,0,0,0,0,0,0,0,0,0,0,0.1201,0.1203,0,0.1253,0.1252,0.1252,0.1268,0.1269,0.127,0.1271,0.133,0.1331,0.1331,0,0,0,0,0,0,0,0,0,0,0,0,0,0.1098,0.1099,0.1201,0.1203,0.1205,0.1253,0.1252,0.1252,0.1268,0.1269,0.127,0.1271,0.133,0.133,0.1331,0,0,0,0,0,0,0,0,0,0,0,0,0,0.1134,0.11,0.1201,0.1228,0.1232,0.1253,0.1252,0.1252,0.1268,0.1269,0.1271,0.1272,0.1329,0.133,0.1331,0.1311,0,0,0.1335,0.1335,0,0,0,0,0,0,0,0,0.1132,0.1136,0.1222,0.1226,0.1231,0.1266,0.1238,0.1276,0.1267,0.1241,0.1271,0.1272,0.1316,0.1319,0.1307,0.1314,0.1317,0.1335,0.1336,0.1336,0.1336,0,0,0,0,0,0,0,0.1129,0.1134,0.1209,0.1224,0.1229,0.1232,0.1237,0.1244,0.1261,0.1243,0.1248,0.1273,0.1317,0.1306,0.1309,0.1318,0.1335,0.1336,0.1337,0.1337,0.1392,0.1392,0,0,0,0,0,0,0.1148,0.1132,0.1208,0.1212,0.1198,0.1234,0.1239,0.1243,0.1261,0.1269,0.1272,0.1274,0.1304,0.1308,0.1312,0.1394,0.1336,0.1337,0.1338,0.1391,0.1392,0.1393,0,0,0,0,0,0,0.1145,0.1153,0.1206,0.1184,0.1193,0.1235,0.1239,0.1244,0.1278,0.1285,0.129,0.1308,0.1305,0.131,0.1332,0.1393,0.1338,0.1339,0.139,0.1391,0.1392,0.1493,0,0,0,0,0,0,0.1141,0.1151,0.1157,0.1185,0.1195,0.1236,0.124,0.1244,0.1295,0.1298,0.1317,0.1321,0.1306,0.133,0.1333,0.1394,0.1339,0.1389,0.1391,0.1392,0.1488,0.1497,0.1505,0,0,0,0,0,0.1136,0.1135,0.1156,0.1167,0.1203,0.1238,0.1242,0.1269,0.1296,0.1304,0.1313,0.1323,0.1343,0.1331,0.1334,0.1397,0.1388,0.139,0.1392,0.1485,0.1496,0.1505,0,0,0,0,0,0,0.111,0.1138,0.1162,0.1175,0.122,0.1246,0.1261,0.1295,0.1307,0.1327,0.1323,0.1326,0.138,0.1358,0.1346,0.1413,0.1372,0.1374,0.1441,0.1451,0.1459,0.1435,0.134,0,0,0,0,0,0.1107,0.1106,0.1155,0.1174,0.1194,0.1239,0.1262,0.1298,0.132,0.133,0.134,0.1354,0.1381,0.1392,0.1402,0.1426,0.1429,0.1468,0.1477,0.1484,0.1464,0.1545,0.156,0.1399,0.1399,0.1399,0,0,0.1102,0.1127,0.1125,0.1169,0.1199,0.1221,0.1253,0.131,0.132,0.1335,0.1343,0.1393,0.1395,0.143,0.1452,0.1425,0.1528,0.1486,0.1493,0.1468,0.1549,0.1565,0.1579,0.14,0.14,0.1399,0,0,0.1081,0.1119,0.11,0.1141,0.1212,0.1241,0.1273,0.1324,0.1333,0.1359,0.1391,0.1462,0.1466,0.1494,0.1505,0.1558,0.158,0.1585,0.1601,0.1683,0.1697,0.171,0.1729,0.1743,0.1578,0.1578,0.1578,0,0.1075,0.1069,0.1109,0.1122,0.1159,0.1254,0.1269,0.1287,0.134,0.137,0.1369,0.1475,0.1487,0.1566,0.1578,0.1582,0.1612,0.1573,0.1697,0.171,0.1722,0.1738,0.1752,0.1583,0.1583,0.1582,0.1582,0,0.1047,0.1052,0.106,0.1093,0.1137,0.1181,0.1234,0.1275,0.1324,0.1374,0.1474,0.1507,0.1586,0.1612,0.1599,0.1712,0.1702,0.1716,0.1681,0.1745,0.1756,0.1769,0.1591,0.1589,0.1587,0.1586,0,0,0.1007,0.102,0.1034,0.1038,0.1136,0.117,0.1203,0.127,0.1323,0.1401,0.1479,0.1546,0.1653,0.1668,0.1723,0.1766,0.1872,0.1771,0.1773,0.1801,0.2027,0.1872,0.187,0.1936,0.1939,0.1941,0.2002,0,0.0976,0.0949,0.0994,0.1016,0.1007,0.1117,0.114,0.1236,0.1313,0.141,0.1525,0.1631,0.165,0.1737,0.1798,0.1869,0.1911,0.185,0.1947,0.1948,0.1815,0.1882,0.195,0.2011,0.2014,0.2016,0.2018,0,0.0943,0.0921,0.0895,0.0948,0.0967,0.1017,0.1129,0.1175,0.1342,0.1406,0.1578,0.1701,0.184,0.1832,0.1982,0.1958,0.1991,0.2012,0.2017,0.1837,0.1816,0.1933,0.2041,0.2039,0.2037,0.2036,0.2034,0,0.087,0.0879,0.0845,0.0867,0.0928,0.0969,0.1052,0.1196,0.1273,0.1458,0.1584,0.1758,0.1898,0.1973,0.2059,0.2047,0.2182,0.218,0.2058,0.2046,0.2125,0.2111,0.2259,0.2259,0.2259,0.2259,0.2258,0,0.0817,0.0808,0.0809,0.0803,0.0828,0.0918,0.1018,0.1108,0.1297,0.1434,0.1626,0.1758,0.1949,0.2078,0.2096,0.2115,0.2235,0.2053,0.2061,0.2161,0.2151,0.2134,0.2118,0.2261,0.226,0.226,0.226,0,0.0749,0.0738,0.0712,0.0753,0.0786,0.0825,0.1023,0.11,0.1281,0.1472,0.1562,0.1818,0.1956,0.2092,0.2206,0.2166,0.2178,0.2148,0.2221,0.2233,0.1969,0.1959,0.2013,0.2008,0.2004,0.2001,0.1998,0,0.0695,0.0653,0.068,0.0684,0.0715,0.0798,0.0872,0.1065,0.1165,0.1479,0.1563,0.1807,0.1949,0.2008,0.21,0.2128,0.2105,0.2096,0.2034,0.1947,0.195,0.1945,0.194,0.1991,0.199,0.1989,0.1988,0,0.0597,0.0616,0.0606,0.0603,0.0657,0.0738,0.0869,0.0946,0.1181,0.1361,0.1559,0.1691,0.1839,0.1922,0.1974,0.1979,0.2093,0.2053,0.2061,0.2003,0.1921,0.1927,0.1927,0.1974,0.1976,0.1977,0.1978,0,0.0556,0.0533,0.0522,0.0536,0.0587,0.0667,0.0757,0.0898,0.104,0.1377,0.141,0.1648,0.1819,0.1842,0.1869,0.1884,0.1849,0.179,0.181,0.1827,0.1735,0.1603,0.1563,0,0,0,0,0,0.0508,0.0485,0.0464,0.0485,0.0537,0.0601,0.0741,0.084,0.1061,0.1164,0.1302,0.1427,0.1555,0.1643,0.162,0.1738,0.1822,0.1698,0.1754,0.1896,0.1912,0.182,0,0,0,0,0,0,0.0467,0.0456,0.0433,0.0433,0.0467,0.0552,0.0658,0.0812,0.0875,0.1096,0.1164,0.1327,0.1446,0.1566,0.1597,0.1617,0.1617,0.1813,0.1808,0.1887,0.1901,0.1915,0.1825,0,0,0,0,0]},{"header":{"parameterUnit":"m.s-1","parameterCategory":2,"la1":30.2991,"la2":30.254,"lo1":-89.0895,"lo2":-89.0444,"dy":0.0017,"dx":0.0017,"nx":28,"ny":28,"refTime":"2025-01-17T03:00:00:Z","depth":"4","parameterNumber":3,"parameterNumberName":"V-component_of_CURRENTS"},"data":[0,0,0,0,0,0,0,0,0,0,0,0,0,0,0,0,0,0,0,0,0,0,0,0,0,0,0,0,0,0,0,0,0,0,0,0,0,0,0,0,0,0,0,0,0,0,0,0,0,0,0,0,0,0,0,0,0,0,0.0162,0.0162,0,0.0134,0.0134,0.0133,0.0113,0.0113,0.0112,0.0112,0.0025,0.0023,0.002,0,0,0,0,0,0,0,0,0,0,0,0,0,0.0177,0.0177,0.0162,0.0162,0.0161,0.0134,0.0134,0.0133,0.0113,0.0113,0.0112,0.0112,0.0025,0.0023,0.002,0,0,0,0,0,0,0,0,0,0,0,0,0,0.0163,0.0177,0.0162,0.0147,0.0146,0.0134,0.0134,0.0133,0.0113,0.0113,0.0112,0.0112,0.0026,0.0023,0.002,0.0008,0,0,0.001,0.0009,0,0,0,0,0,0,0,0,0.0163,0.0162,0.015,0.0148,0.0147,0.0126,0.0107,0.0088,0.0113,0.0126,0.0112,0.0112,0.0053,0.0047,0.0045,0.0003,-0.0,0.001,0.0008,0.0007,0.0006,0,0,0,0,0,0,0,0.0164,0.0163,0.0152,0.015,0.0147,0.0135,0.0133,0.0103,0.0091,0.0125,0.0123,0.0119,0.0051,0.0048,0.0042,-0.0002,0.001,0.0007,0.0005,0.0004,-0.0053,-0.0053,0,0,0,0,0,0,0.0168,0.0164,0.0153,0.0151,0.0153,0.0135,0.0132,0.0134,0.0093,0.0087,0.0119,0.0118,0.0054,0.0046,0.0039,0.004,0.0007,0.0004,0.0002,-0.0053,-0.0053,-0.0052,0,0,0,0,0,0,0.0169,0.0168,0.0154,0.0156,0.0153,0.0135,0.0136,0.0133,0.0131,0.0089,0.0082,0.012,0.0053,0.0044,0.002,0.0035,0.0002,-0.0001,-0.0054,-0.0053,-0.0053,0.003,0,0,0,0,0,0,0.0169,0.0168,0.0176,0.0156,0.0153,0.0153,0.0137,0.0133,0.0128,0.0126,0.0087,0.0079,0.0052,0.0025,0.0017,0.0031,-0.0003,-0.0054,-0.0053,-0.0053,0.0026,0.0033,0.0038,0,0,0,0,0,0.017,0.0182,0.0177,0.0175,0.0163,0.0154,0.0151,0.0137,0.0129,0.0133,0.0107,0.008,0.0024,0.0023,0.0013,0.0026,-0.0055,-0.0054,-0.0053,0.0024,0.0032,0.0038,0,0,0,0,0,0,0.0193,0.0181,0.0174,0.0182,0.0171,0.015,0.0153,0.0141,0.0126,0.0119,0.0083,0.0074,0.0059,0.0029,0.0029,0.0011,-0.0019,-0.002,0.0042,0.0049,0.0055,0.0066,-0.0006,0,0,0,0,0,0.0201,0.0207,0.0191,0.0197,0.0193,0.0174,0.017,0.0156,0.0137,0.013,0.0108,0.0078,0.0055,0.0041,0.0014,0.0003,-0.0034,0.0005,0.0011,0.0016,0.0018,-0.0023,-0.0021,-0.005,-0.005,-0.005,0,0,0.0209,0.0205,0.0207,0.0202,0.0192,0.0196,0.0171,0.0163,0.0167,0.0121,0.0124,0.0096,0.0056,0.0048,0.0039,0.0025,0.0006,0.0017,0.0023,0.0021,-0.0022,-0.002,-0.0017,-0.0049,-0.0049,-0.0049,0,0,0.0228,0.0226,0.0237,0.0233,0.022,0.0211,0.0211,0.0195,0.0189,0.0183,0.0153,0.0138,0.0104,0.0086,0.0069,0.0089,0.0038,0.0079,0.012,0.0081,0.0083,0.0084,0.0049,0.0046,0.0084,0.0084,0.0084,0,0.0238,0.0255,0.0238,0.0249,0.0252,0.0222,0.0236,0.0226,0.0206,0.0206,0.0192,0.0155,0.0125,0.0114,0.0126,0.0104,0.0071,0.01,0.009,0.009,0.009,0.0053,0.0049,0.0088,0.0088,0.0087,0.0087,0,0.0263,0.028,0.0286,0.0295,0.0295,0.03,0.0284,0.0281,0.0272,0.0265,0.0255,0.0216,0.0195,0.0187,0.0164,0.0154,0.0127,0.0102,0.0075,0.0098,0.0057,0.0052,0.0094,0.0093,0.0091,0.009,0,0,0.0276,0.0302,0.0306,0.0326,0.0322,0.0326,0.0329,0.0333,0.034,0.0321,0.033,0.0301,0.0282,0.026,0.0227,0.0198,0.0177,0.0158,0.0154,0.0129,0.0089,0.0079,0.0071,0.0148,0.0148,0.0147,0.0063,0,0.0304,0.0345,0.0348,0.0388,0.0406,0.0389,0.0402,0.0395,0.0384,0.0385,0.0346,0.0342,0.0308,0.03,0.0267,0.0192,0.0165,0.0202,0.0063,0.0059,0.0053,0.0066,0.0145,0.0059,0.0058,0.0057,0.0056,0,0.0322,0.0355,0.0402,0.0442,0.045,0.0473,0.0486,0.0491,0.0474,0.0462,0.0443,0.0409,0.037,0.0336,0.0227,0.0249,0.0181,0.0124,0.0119,0.0076,0.0039,0.0027,0.0045,0.0046,0.0047,0.0048,0.0048,0,0.0335,0.0388,0.0435,0.0447,0.0486,0.051,0.0531,0.0524,0.0543,0.0515,0.052,0.0455,0.0428,0.0331,0.0217,0.0218,0.0087,0.0069,-0.0002,-0.0004,-0.0006,-0.0007,-0.0002,-0.0002,-0.0001,-0.0001,-0.0001,0,0.0355,0.0393,0.0454,0.0482,0.0549,0.0553,0.0608,0.0604,0.0613,0.0635,0.0572,0.0556,0.0425,0.0337,0.0227,0.0093,0.009,0.0006,-0.0025,0.0031,0.0035,-0.001,-0.001,-0.0004,-0.0004,-0.0003,-0.0002,0,0.0352,0.039,0.0452,0.0525,0.0559,0.0603,0.0685,0.0712,0.0707,0.0726,0.0724,0.0636,0.0503,0.0368,0.0197,0.0114,-0.0019,-0.0063,0.0011,-0.0016,-0.0085,-0.008,-0.0149,-0.015,-0.0151,-0.0152,-0.0153,0,0.036,0.039,0.049,0.0541,0.0588,0.0665,0.0717,0.0756,0.0777,0.0765,0.0765,0.0666,0.0583,0.0339,0.0184,-0.0026,-0.0051,-0.0113,-0.0096,-0.0076,-0.01,-0.0093,-0.0087,-0.0154,-0.0154,-0.0155,-0.0155,0,0.0378,0.0407,0.0461,0.0563,0.0645,0.0736,0.0809,0.0838,0.0857,0.0864,0.0797,0.068,0.0529,0.0332,0.0172,0.0021,-0.0072,-0.0123,-0.0122,-0.0106,-0.0083,-0.0104,-0.0097,-0.0158,-0.0157,-0.0157,-0.0157,0,0.0391,0.0428,0.0495,0.0584,0.0683,0.0773,0.0819,0.0847,0.0882,0.086,0.0829,0.0676,0.0585,0.0355,0.02,0.0054,0.002,-0.0016,-0.0021,-0.002,0.0042,0.0093,0.0046,0,0,0,0,0,0.0406,0.0448,0.0518,0.062,0.0707,0.0775,0.0859,0.0886,0.0908,0.087,0.0857,0.0713,0.0487,0.0377,0.0229,0.0176,-0.0009,-0.0001,-0.0055,-0.0175,-0.0171,-0.0122,0,0,0,0,0,0,0.042,0.0479,0.0511,0.0626,0.0694,0.0806,0.0866,0.0885,0.0855,0.0846,0.0719,0.0677,0.0444,0.0568,0.0224,0.018,0.0127,-0.0106,-0.0109,-0.0177,-0.0173,-0.0171,-0.0119,0,0,0,0,0]}]]